LROP Weather Reports


Display with metric or nautical units.
time (UTC)temp
F
wind
direction
speed
MPH
gust
MPH
rain 1hr
in
rain 24hr
in
rain mn
in
humidity
%
barometer
mb
20260905193302 73 250 3.0 0.0 0.00 0.00 0.00 53 1014.0
20260905191831 73 0 0.0 0.0 0.00 0.00 0.00 53 1014.0
20260905190302 73 0 0.0 0.0 0.00 0.00 0.00 53 1014.0
20260905184803 75 210 2.0 0.0 0.00 0.00 0.00 47 1014.0
20260905183307 75 210 2.0 0.0 0.00 0.00 0.00 47 1014.0
20260905181802 77 210 3.0 0.0 0.00 0.00 0.00 44 1014.0
20260905180302 77 210 3.0 0.0 0.00 0.00 0.00 44 1014.0
20260905174802 77 210 5.0 0.0 0.00 0.00 0.00 44 1014.0
20260905173302 77 210 5.0 0.0 0.00 0.00 0.00 44 1014.0
20260905171812 79 210 3.0 0.0 0.00 0.00 0.00 42 1014.0
20260905170302 79 210 3.0 0.0 0.00 0.00 0.00 42 1014.0
20260905164802 81 240 5.0 0.0 0.00 0.00 0.00 42 1014.0
20260905163303 81 240 5.0 0.0 0.00 0.00 0.00 42 1014.0
20260905161803 84 250 8.0 0.0 0.00 0.00 0.00 37 1014.0
20260905160302 84 250 8.0 0.0 0.00 0.00 0.00 37 1014.0
20260905154818 88 270 9.0 0.0 0.00 0.00 0.00 29 1014.0
20260905153302 88 270 9.0 0.0 0.00 0.00 0.00 29 1014.0
20260905151802 90 260 9.0 0.0 0.00 0.00 0.00 26 1014.0
20260905150303 90 260 9.0 0.0 0.00 0.00 0.00 26 1014.0
20260905144802 91 260 9.0 0.0 0.00 0.00 0.00 24 1014.0
20260905143302 91 260 9.0 0.0 0.00 0.00 0.00 24 1014.0
20260905141802 91 230 8.0 0.0 0.00 0.00 0.00 24 1014.0
20260905140302 91 230 8.0 0.0 0.00 0.00 0.00 24 1014.0
20260905134912 91 250 8.0 0.0 0.00 0.00 0.00 24 1014.0
20260905133302 91 250 8.0 0.0 0.00 0.00 0.00 24 1014.0
20260905131808 91 260 10.0 0.0 0.00 0.00 0.00 28 1014.0
20260905130323 91 260 10.0 0.0 0.00 0.00 0.00 28 1014.0
20260905124803 91 250 14.0 0.0 0.00 0.00 0.00 24 1015.0
20260905123303 91 250 14.0 0.0 0.00 0.00 0.00 24 1015.0
20260905121829 91 290 11.0 0.0 0.00 0.00 0.00 26 1015.0
20260905120302 91 290 11.0 0.0 0.00 0.00 0.00 26 1015.0
20260905114802 91 300 10.0 0.0 0.00 0.00 0.00 24 1016.0
20260905113302 91 300 10.0 0.0 0.00 0.00 0.00 24 1016.0
20260905111820 90 300 9.0 0.0 0.00 0.00 0.00 27 1016.0
20260905110302 90 300 9.0 0.0 0.00 0.00 0.00 27 1016.0
20260905104802 90 270 10.0 0.0 0.00 0.00 0.00 27 1016.0
20260905103302 90 270 10.0 0.0 0.00 0.00 0.00 27 1016.0
20260905101802 90 260 9.0 0.0 0.00 0.00 0.00 27 1016.0
20260905100303 90 260 9.0 0.0 0.00 0.00 0.00 27 1016.0
20260905094915 88 260 11.0 0.0 0.00 0.00 0.00 27 1016.0
20260905093302 88 260 11.0 0.0 0.00 0.00 0.00 27 1016.0
20260905091802 86 260 10.0 0.0 0.00 0.00 0.00 33 1016.0
20260905090302 86 260 10.0 0.0 0.00 0.00 0.00 33 1016.0
20260905084802 84 290 8.0 0.0 0.00 0.00 0.00 33 1017.0
20260905083302 84 290 8.0 0.0 0.00 0.00 0.00 33 1017.0
20260905081802 82 250 7.0 0.0 0.00 0.00 0.00 40 1017.0
20260905080303 82 250 7.0 0.0 0.00 0.00 0.00 40 1017.0
20260905074802 81 280 6.0 0.0 0.00 0.00 0.00 42 1017.0
20260905073311 81 280 6.0 0.0 0.00 0.00 0.00 42 1017.0
20260905071802 77 290 9.0 0.0 0.00 0.00 0.00 47 1017.0
20260905070302 77 290 9.0 0.0 0.00 0.00 0.00 47 1017.0
20260905064802 73 270 9.0 0.0 0.00 0.00 0.00 61 1017.0
20260905063302 73 270 9.0 0.0 0.00 0.00 0.00 61 1017.0
20260905061803 70 270 7.0 0.0 0.00 0.00 0.00 69 1017.0
20260905060303 70 270 7.0 0.0 0.00 0.00 0.00 69 1017.0
20260905054802 66 260 6.0 0.0 0.00 0.00 0.00 78 1016.0
20260905053303 66 260 6.0 0.0 0.00 0.00 0.00 78 1016.0
20260905051802 64 270 6.0 0.0 0.00 0.00 0.00 83 1016.0
20260905050302 64 270 6.0 0.0 0.00 0.00 0.00 83 1016.0
20260905044802 61 260 5.0 0.0 0.00 0.00 0.00 88 1016.0
20260905043302 61 260 5.0 0.0 0.00 0.00 0.00 88 1016.0
20260905041802 59 240 5.0 0.0 0.00 0.00 0.00 94 1016.0
20260905040302 59 240 5.0 0.0 0.00 0.00 0.00 94 1016.0
20260905034802 59 250 3.0 0.0 0.00 0.00 0.00 94 1016.0
20260905033302 59 250 3.0 0.0 0.00 0.00 0.00 94 1016.0
20260905031802 59 0 0.0 0.0 0.00 0.00 0.00 94 1016.0
20260905030302 59 0 0.0 0.0 0.00 0.00 0.00 94 1016.0
20260905024815 59 2.0 0.0 0.00 0.00 0.00 94 1016.0
20260905023302 59 2.0 0.0 0.00 0.00 0.00 94 1016.0
20260905021802 59 310 5.0 0.0 0.00 0.00 0.00 94 1016.0
20260905020303 59 310 5.0 0.0 0.00 0.00 0.00 94 1016.0
20260905014802 61 2.0 0.0 0.00 0.00 0.00 94 1016.0
20260905013302 61 2.0 0.0 0.00 0.00 0.00 94 1016.0
20260905011802 61 0 0.0 0.0 0.00 0.00 0.00 94 1016.0
20260905010303 61 0 0.0 0.0 0.00 0.00 0.00 94 1016.0
20260905004803 63 220 2.0 0.0 0.00 0.00 0.00 88 1016.0
20260905003303 63 220 2.0 0.0 0.00 0.00 0.00 88 1016.0
20260905001802 63 340 3.0 0.0 0.00 0.00 0.00 83 1016.0
20260905000303 63 340 3.0 0.0 0.00 0.00 0.00 83 1016.0
20260904234802 64 280 3.0 0.0 0.00 0.00 0.00 78 1016.0
20260904233302 64 280 3.0 0.0 0.00 0.00 0.00 78 1016.0
20260904231804 64 0 0.0 0.0 0.00 0.00 0.00 78 1016.0
20260904230302 64 0 0.0 0.0 0.00 0.00 0.00 78 1016.0
20260904224804 66 0 0.0 0.0 0.00 0.00 0.00 73 1016.0
20260904223302 66 0 0.0 0.0 0.00 0.00 0.00 73 1016.0
20260904221803 68 310 3.0 0.0 0.00 0.00 0.00 69 1016.0
20260904220302 68 310 3.0 0.0 0.00 0.00 0.00 69 1016.0
20260904214802 66 270 6.0 0.0 0.00 0.00 0.00 73 1016.0
20260904213302 66 270 6.0 0.0 0.00 0.00 0.00 73 1016.0
20260904211802 68 230 5.0 0.0 0.00 0.00 0.00 73 1016.0
20260904210301 68 230 5.0 0.0 0.00 0.00 0.00 73 1016.0
20260904204803 68 220 3.0 0.0 0.00 0.00 0.00 73 1016.0
20260904203302 68 220 3.0 0.0 0.00 0.00 0.00 73 1016.0
20260904201802 70 210 2.0 0.0 0.00 0.00 0.00 73 1016.0
20260904200316 70 250 3.0 0.0 0.00 0.00 0.00 64 1016.0
20260904194802 70 250 3.0 0.0 0.00 0.00 0.00 64 1016.0